Glasgow, MT

8:19 AM MST on February 13, 2016 (GMT -0700)
Wokal-Glasgow International

Weather History for KGGW - May, 2013

Change the Weather History Date:

Wednesday, May 8, 2013

  Actual Average Record
Temperature  
Mean Temperature 57 °F 53 °F  
Max Temperature 68 °F 66 °F 90 °F (1934)
Min Temperature 46 °F 40 °F 16 °F (1945)
Degree Days  
Heating Degree Days 8 13  
Month to date heating degree days 108 111  
Since 1 July heating degree days 8367 8118  
Cooling Degree Days 0 0  
Month to date cooling degree days 0 0  
Year to date cooling degree days 0 1  
Growing Degree Days 7 (Base 50)    
Moisture  
Dew Point 32 °F    
Average Humidity 45    
Maximum Humidity 65    
Minimum Humidity 24    
Precipitation  
Precipitation 0.00 in 0.05 in 0.69 in (1986)
Month to date precipitation 0.00 0.37  
Year to date precipitation 2.81 2.27  
Snow  
Snow 0.00 in 0.00 in 3.00 in (2002)
Month to date snowfall 0.0 0.4  
Since 1 July snowfall 62.3 34.0  
Snow Depth 0.00 in    
Sea Level Pressure  
Sea Level Pressure 30.14 in    
Wind  
Wind Speed 12 mph (ENE)    
Max Wind Speed 30 mph    
Max Gust Speed 37 mph    
Visibility 10 miles    
Events      
T = Trace of Precipitation, MM = Missing Value Source: NWS Daily Summary

Daily Weather History Graph

Daily Weather History Graph

Search for Another Location

Airport or City:

Trip Planner

Search our weather history database for the weather conditions in past years. The results will help you decide how hot, cold, wet, or windy it might be!

Date:

Astronomy

May. 08, 2013 Rise Set
Actual Time 5:36 AM MDT 8:30 PM MDT
Civil Twilight 5:00 AM MDT 9:06 PM MDT
Nautical Twilight 4:13 AM MDT 9:53 PM MDT
Astronomical Twilight 3:18 AM MDT 10:49 PM MDT
Moon 4:52 AM MDT (5/8) 7:27 PM MDT (5/8)
Length of Visible Light 16h 06m
Length of Day
14h 54m
Waning Crescent, 2% of the Moon is Illuminated
May 8
Waning Crescent
May 9
New
May 17
First Quarter
May 24
Full
May 31
Last Quarter

Hourly Weather History & Observations

Time (MDT) Temp. Dew Point Humidity Pressure Visibility Wind Dir Wind Speed Gust Speed Precip Events Conditions
12:53 AM 52.0 °F 36.0 °F 54% 29.97 in 10.0 mi NE 29.9 mph 36.8 mph N/A   Clear
1:53 AM 50.0 °F 35.1 °F 57% 30.02 in 10.0 mi NNE 12.7 mph 18.4 mph N/A   Clear
2:53 AM 48.9 °F 34.0 °F 56% 30.04 in 10.0 mi NE 5.8 mph - N/A   Clear
3:53 AM 48.0 °F 34.0 °F 58% 30.05 in 10.0 mi NNE 6.9 mph - N/A   Clear
4:53 AM 46.9 °F 35.1 °F 63% 30.07 in 10.0 mi NNE 10.4 mph - N/A   Clear
5:53 AM 46.9 °F 35.1 °F 63% 30.10 in 10.0 mi North 6.9 mph - N/A   Clear
6:53 AM 48.0 °F 35.1 °F 61% 30.13 in 10.0 mi NNE 10.4 mph - N/A   Clear
7:53 AM 51.1 °F 36.0 °F 56% 30.15 in 10.0 mi ENE 15.0 mph - N/A   Clear
8:53 AM 52.0 °F 35.1 °F 53% 30.17 in 10.0 mi NE 16.1 mph 23.0 mph N/A   Clear
9:53 AM 54.0 °F 36.0 °F 51% 30.18 in 10.0 mi NE 12.7 mph 19.6 mph N/A   Clear
10:53 AM 55.9 °F 34.0 °F 44% 30.19 in 10.0 mi ENE 13.8 mph 19.6 mph N/A   Clear
11:53 AM 60.1 °F 34.0 °F 38% 30.19 in 10.0 mi East 15.0 mph 21.9 mph N/A   Clear
12:53 PM 62.1 °F 33.1 °F 34% 30.18 in 10.0 mi ENE 8.1 mph 20.7 mph N/A   Clear
1:53 PM 64.0 °F 33.1 °F 31% 30.17 in 10.0 mi East 13.8 mph 19.6 mph N/A   Clear
2:53 PM 66.0 °F 32.0 °F 28% 30.17 in 10.0 mi East 13.8 mph 18.4 mph N/A   Clear
3:53 PM 66.0 °F 30.9 °F 27% 30.15 in 10.0 mi ENE 9.2 mph - N/A   Clear
4:53 PM 68.0 °F 30.9 °F 25% 30.14 in 10.0 mi ENE 12.7 mph 19.6 mph N/A   Clear
5:53 PM 66.0 °F 30.9 °F 27% 30.14 in 10.0 mi East 12.7 mph - N/A   Clear
6:53 PM 64.0 °F 28.9 °F 27% 30.15 in 10.0 mi East 12.7 mph - N/A   Clear
7:53 PM 61.0 °F 28.9 °F 30% 30.16 in 10.0 mi East 12.7 mph - N/A   Clear
8:53 PM 55.9 °F 28.9 °F 36% 30.17 in 10.0 mi East 10.4 mph - N/A   Clear
9:53 PM 54.0 °F 28.0 °F 37% 30.18 in 10.0 mi East 11.5 mph - N/A   Clear
10:53 PM 53.1 °F 27.0 °F 37% 30.18 in 10.0 mi East 13.8 mph - N/A   Clear
11:53 PM 52.0 °F 25.0 °F 35% 30.19 in 10.0 mi East 13.8 mph - N/A   Clear